www.pogodaiklimat.ru

Погода и климат >> Архив погоды >> Россия >> Чукотка >> Марково


АРХИВ ПОГОДЫ в Марково

Время (UTC), дата Ветер
(напр.,м/с)
 
Видим.   Явления Облачность Т
(С)
Тd
(С)
f
(%)
Тe
(С)
Тes
(С)
Комфортность P
(гПа)
Po
(гПа)
Тmin
(С)
Tmax
(С)
R
(мм)
R24
(мм)
S
(см)
09 11.06 В 1
{3}
50 км 3/1 1000 м
[Sc Ci fib]
+20.4 +7.1 42 +23 +23 комфорт 1015.4 1012.6
12 11.06 В 1
{3}
50 км 1/1 1000 м
[Sc]
+6.8 +5.9 94 +6 +6 1015.6 1012.7
15 11.06 С 1
{3}
50 км 1/1 1000 м
[Sc]
+5.0 +4.5 97 +4 +4 1016.0 1013.0
18 11.06 СЗ 1
{3}
50 км 6/1 1000 м
[Sc Ac trans Ci fib]
+10.2 +6.5 78 +10 +11 1016.1 1013.2 +3.5
21 11.06 С 1
{3}
50 км 3/0
[Ci fib]
+19.2 +10.0 55 +21 +30 комфорт 1016.0 1013.2
00 12.06 СВ 2
{5}
50 км 3/3 600 м
[Cu med, cong Ci fib]
+23.8 +4.5 29 +24 +32 комфорт 1014.8 1012.0
03 12.06 В 2
{6}
50 км 3/1 600 м
[Cu hum Ci fib]
+25.2 +0.2 19 +24 +32 комфорт 1013.5 1010.7
06 12.06 В 2
{6}
50 км 4/1 600 м
[Cu hum Ci fib]
+24.6 +2.7 24 +24 +27 комфорт 1012.5 1009.7 +25.3
09 12.06 СВ 1
{4}
50 км ясно +21.1 +4.8 34 +21 +22 комфорт 1012.8 1010.0
12 12.06 В 2
{3}
50 км ясно +7.6 +6.5 93 +5 +5 1013.4 1010.5
15 12.06 ЮВ 2
{3}
50 км 3/0
[Ci fib]
+9.0 +6.4 84 +7 +7 1013.9 1011.0
18 12.06 ЮВ 1
{2}
50 км 1/0
[Ci fib]
+14.5 +8.5 67 +15 +17 1014.4 1011.5 +6.2
21 12.06 ЮВ 2
{4}
50 км 1/0
[Ci fib]
+20.6 +5.8 38 +22 +30 комфорт 1014.5 1011.7
00 13.06 В 2
{6}
50 км 3/0
[Ci fib]
+23.7 +3.0 26 +23 +35 комфорт 1013.8 1011.0
03 13.06 ЮВ 2
{5}
50 км 3/1 600 м
[Cu hum Ci fib]
+24.9 +1.5 22 +24 +33 комфорт 1012.5 1009.7
06 13.06 З 1
{5}
50 км 4/1 600 м
[Cu hum Ci fib]
+25.2 +2.1 22 +24 +28 комфорт 1011.3 1008.6 +25.2
09 13.06 СВ 1
{4}
50 км 3/0
[Ci fib]
+20.9 +10.0 50 +24 +24 комфорт 1011.4 1008.6
12 13.06 штиль 0
{2}
50 км 3/0
[Ci fib]
+7.6 +6.7 94 +7 +7 1011.6 1008.7
15 13.06 С 1
{3}
50 км 3/0
[Ci fib]
+5.3 +4.8 97 +4 +4 1011.7 1008.8
18 13.06 СЗ 1
{3}
50 км 3/0
[Ci fib]
+12.5 +9.8 84 +13 +15 1012.2 1009.3 +4.6
21 13.06 В 1
{3}
50 км 1/0
[Ci fib]
+20.3 +9.2 49 +23 +32 комфорт 1012.4 1009.6
00 14.06 СВ 2
{4}
50 км 1/0
[Ci fib]
+23.9 +6.7 33 +24 +36 комфорт 1011.9 1009.1
03 14.06 С 3
{5}
50 км 3/1 600 м
[Cu hum Ci fib]
+25.2 +3.8 25 +24 +32 комфорт 1011.1 1008.4
06 14.06 В 2
{6}
50 км 3/1 600 м
[Cu med, cong Ci fib]
+26.0 +4.0 24 +25 +28 комфорт 1010.7 1008.0 +26.1
09 14.06 В 1
{5}
50 км 8/1 600 м
[Cu hum Ac lent Ci]
+21.9 +10.2 47 +24 +24 комфорт 1011.8 1009.0
12 14.06 ЮВ 2
{3}
50 км 6/1 1000 м
[Sc Ci fib]
+10.9 +9.9 94 +9 +9 1013.2 1010.3
15 14.06 ЮВ 2
{3}
50 км 8/1 1000 м
[Sc Ac trans Ci fib]
+9.3 +7.4 88 +8 +8 1014.8 1011.9
18 14.06 ЮВ 1
{3}
50 км 4/0
[Ci fib]
+14.3 +8.8 69 +15 +17 1016.4 1013.5 +7.4
21 14.06 ЮВ 2
{4}
50 км 5/0
[Ci fib]
+20.8 +9.4 48 +23 +30 комфорт 1017.3 1014.5
00 15.06 СВ 3
{6}
50 км 4/0
[Ci fib]
+23.7 +4.3 28 +23 +33 комфорт 1017.3 1014.5
03 15.06 СВ 2
{6}
50 км 5/0
[Ci fib]
+25.1 +5.0 27 +25 +34 комфорт 1016.8 1014.0
06 15.06 СВ 2
{5}
50 км 3/0
[Ci fib]
+25.3 +5.6 28 +25 +29 комфорт 1016.4 1013.6 +25.7
09 15.06 СВ 1
{4}
50 км 3/0
[Ci fib]
+21.1 +10.3 50 +23 +23 комфорт 1016.8 1014.0
12 15.06 З 2
{3}
50 км 3/0
[Ci fib]
+10.7 +9.9 95 +9 +9 1017.7 1014.8
15 15.06 ЮВ 1
{3}
50 км 3/0
[Ci fib]
+4.0 +3.5 97 +2 +2 1018.3 1015.3
18 15.06 СЗ 1
{4}
50 км 1/0
[Ci fib]
+14.6 +7.3 62 +15 +17 1018.8 1015.9 +3.6
21 15.06 З 2
{3}
50 км 8/0
[Ci]
+21.9 +8.2 41 +23 +29 комфорт 1018.4 1015.6
00 16.06 З 1
{5}
20 км дым 8/1 600 м
[Cu hum Ci fib]
+26.2 +5.3 26 +25 +37 комфорт 1016.9 1014.1
03 16.06 С 2
{5}
20 км дым 4/1 600 м
[Cu hum Ci fib]
+27.5 +3.2 21 +26 +35 жарко 1015.3 1012.6
06 16.06 ЮЗ 1
{5}
20 км дым 8/0
[Ac lent Ci fib]
+26.9 +2.7 21 +25 +29 комфорт 1014.4 1011.7 +27.8
09 16.06 Ю 1
{4}
20 км дым 10/0
[Cs]
+21.3 +10.5 50 +23 +23 комфорт 1014.1 1011.3
12 16.06 З 1
{2}
20 км дым 8/0
[Ci fib]
+7.9 +6.4 90 +7 +7 1014.2 1011.3
15 16.06 ЮВ 1
{3}
20 км дым 9/0
[Ac trans Ci fib]
+4.4 +3.9 97 +3 +3 1014.6 1011.6
18 16.06 ЮВ 1
{2}
20 км дым 8/0
[Ci fib]
+13.7 +10.0 78 +14 +16 1015.0 1012.1 +4.2
21 16.06 З 2
{3}
20 км дым 8/0
[Ci sp]
+20.5 +8.8 47 +22 +29 комфорт 1015.4 1012.6
00 17.06 ЮВ 1
{5}
20 км дым 9/0
[Ci sp]
+25.2 +6.4 30 +25 +37 комфорт 1015.4 1012.6
03 17.06 ЮЗ 4
{8}
20 км дым 6/1 600 м
[Cu hum Ci fib]
+26.9 +4.1 23 +26 +31 жарко 1014.4 1011.7
06 17.06 Ю 4
{9}
20 км дым 9/3 600 м
[Cu hum Ac trans Ci fib]
+25.7 +5.9 28 +25 +26 комфорт 1014.7 1011.9 +27.7
09 17.06 Ю 2-3
{11}
50 км 8/3 600 м
[Cu Sc Ac trans Ci fib]
+20.7 +7.0 41 +22 +23 комфорт 1015.1 1012.3
12 17.06 Ю 1
{3}
50 км 4/1 1000 м
[Sc Ac trans Ci fib]
+8.9 +7.4 90 +8 +8 1015.2 1012.3
15 17.06 штиль 0
{3}
50 км 3/0
[Ci fib]
+4.7 +4.2 97 +4 +4 1015.4 1012.4
18 17.06 ЮЗ 1
{6}
50 км 3/0
[Ac lent Ci fib]
+14.6 +10.0 74 +15 +17 1015.8 1012.9 +4.2
21 17.06 С 1
{3}
50 км 5/0
[Ci fib]
+21.7 +9.7 46 +23 +31 комфорт 1015.1 1012.3
00 18.06 Ю 1
{4}
50 км 3/0
[Ci fib]
+26.9 +4.8 24 +26 +40 жарко 1013.9 1011.2
03 18.06 З 1-3
{10}
50 км 4/3 600 м
[Cu hum Ci fib]
+27.3 +4.0 22 +26 +34 жарко 1012.4 1009.7
06 18.06 Ю 3
{5}
50 км 5/1 600 м
[Cu hum Ci fib]
+28.0 +3.2 20 +26 +29 жарко 1011.4 1008.7 +28.9

 

Местоположение метеостанции Марково (Чукотка, Россия): широта 64.68 долгота 170.40 высота над уровнем моря 26 м.

В архиве по умолчанию представлена погода в Марково за последнюю неделю. Архивные данные за месяц целиком и за предыдущие месяцы, начиная с января 2011 года, Вы можете получить, выбрав интересующий диапазон дат из раскрывающегося списка и нажав кнопку "Ввод!".


*Определитесь, кто Вы:
робот инопланетянин человек

Внимание! Время в таблицах - всемирное. Для получения местного времени необходимо прибавить поправку, которая равна 12 ч.

Смотрите также архив погоды в соседних городах и на ближайших метеорологических станциях:

Погода в Танюрере (Чукотка, Россия) (191 км)
Погода в Слаутном (Камчатский край, Россия) (208 км)
Погода в Эньмувееме (Чукотка, Россия) (231 км)
Погода в Верхне-Пенжино (Камчатский край, Россия) (302 км)
Погода в Канчалане (Чукотка, Россия) (302 км)
Погода в Илирнее (Чукотка, Россия) (307 км)
Погода в Каменском (Камчатский край, Россия) (321 км)
Погода в Анадыре (Чукотка, Россия) (337 км)
Погода в Анадыре АМС (Чукотка, Россия) (338 км)
Погода в Баимке (Чукотка, Россия) (351 км)

Пояснения к столбцам:

Ветер - указаны скорость ветра в м/с - средняя за 10 мин, порывы в срок и между сроками (в фигурных скобках) и направление, откуда дует ветер: С - северный, СВ - северо-восточный, В - восточный, ЮВ - юго-восточный, Ю - южный, ЮЗ - юго-западный, З - западный, СЗ - северо-западный.
Видимость - горизонтальная дальность видимости в метрах или километрах. При видимости от 1 до 10 км при отсутствии осадков обычно наблюдается дымка, при ухудшении видимости до 1 км и менее - туман. В сухую погоду видимость может ухудшаться дымом, пылью или мглою.
Явления - указаны атмосферные явления, наблюдавшиеся в срок или в последний час перед сроком; фигурными скобками обозначены явления, наблюдавшиеся между сроками (за 1-3 часа до срока); квадратными скобками обозначены град или гололедные отложения с указанием их диаметра в мм.
Облачность - указаны через наклонную черту общая и нижняя облачность в баллах и высота нижней границы облаков в метрах; квадратными скобками обозначены формы облаков: Ci - перистые, Cs - перисто-слоистые, Cc - перисто-кучевые, Ac - высококучевые, As - высокослоистые, Sc - слоисто-кучевые, Ns - слоисто-дождевые, Cu - кучевые, Cb - кучево-дождевые. Подробнее классификацию облаков см. в Атласе облаков (PDF).
T - Температура воздуха - температура, измеренная на высоте 2 м над землей.
Td - Температура точки росы - температура, при понижении до которой содержащийся в воздухе водяной пар достигнет насыщения.
f - Относительная влажность воздуха - влажноcть воздуха, измеренная на высоте 2 м над землей.
Te - Эффективная температура - температура, которую ощущает одетый по сезону человек в тени. Характеристика душности погоды. При расчете учитывается влияние влажности воздуха и скорости ветра на теплоощущения человека.
Tes - Эффективная температура на солнце - температура, которую ощущает человек, с поправкой на солнечный нагрев. Характеристика знойности погоды. Зависит от высоты солнца над горизонтом, облачности и скорости ветра. Ночью, в пасмурную погоду, а также при ветре 12 м/с и более поправка равна нулю.
P - Атмосферное давление - приведенное к уровню моря атмосферное давление.
Po - Атмосферное давление - измеренное на уровне метеостанции атмосферное давление.
Tmin - Минимальная температура - минимум температуры воздуха на высоте 2 м над землей.
Tmax - Максимальная температура - максимум температуры воздуха на высоте 2 м над землей.
R - Количество осадков - Количество выпавших осадков за период времени, мм. При наведении курсора мыши на число - период времени, за который выпало указанное количество осадков.
R24 - Количество осадков - Количество выпавших осадков за 24 часа, мм.
S - Снежный покров - Высота снежного покрова, см. При наведении курсора мыши на число - состояние снежного покрова и степень покрытия местности в баллах.